N6EQ Weather Reports


Display with metric or nautical units.
time (UTC)temp
F
wind
direction
speed
MPH
gust
MPH
rain 1hr
in
rain 24hr
in
rain mn
in
humidity
%
barometer
mb
20260901050036 89 231 7.0 11.0 0.00 0.00 0.00 43 950.4
20260901044535 90 218 6.0 11.0 0.00 0.00 0.00 41 950.3
20260901043034 90 187 0.0 1.0 0.00 0.00 0.00 40 950.1
20260901041539 90 143 0.0 10.0 0.00 0.00 0.00 42 950.0
20260901040033 89 255 3.0 10.0 0.00 0.00 0.00 42 949.8
20260901034532 89 236 1.0 6.0 0.00 0.00 0.00 41 949.5
20260901033031 90 278 2.0 7.0 0.00 0.00 0.00 41 949.2
20260901031532 93 264 1.0 8.0 0.00 0.00 0.00 38 949.0
20260901030032 93 208 4.0 14.0 0.00 0.00 0.00 37 948.9
20260901024529 94 122 7.0 15.0 0.00 0.00 0.00 35 948.7
20260901023028 94 149 8.0 17.0 0.00 0.00 0.00 36 948.4
20260901021528 95 165 8.0 17.0 0.00 0.00 0.00 36 948.2
20260901020027 96 128 9.0 22.0 0.00 0.00 0.00 34 947.9
20260901014527 96 143 13.0 23.0 0.00 0.00 0.00 33 947.9
20260901013039 97 206 9.0 24.0 0.00 0.00 0.00 30 947.8
20260901011534 98 176 8.0 23.0 0.00 0.00 0.00 31 947.7
20260901010024 99 221 12.0 18.0 0.00 0.00 0.00 30 947.7
20260901004523 98 146 12.0 26.0 0.00 0.00 0.00 31 947.7
20260901003022 97 146 11.0 23.0 0.00 0.00 0.00 35 947.7
20260901001522 98 152 16.0 23.0 0.00 0.00 0.00 34 947.7
20260901000028 99 116 13.0 26.0 0.00 0.00 0.00 35 947.8
20260831234519 100 11.0 24.0 0.00 0.00 0.00 29 947.9
20260831233018 100 14.0 26.0 0.00 0.00 0.00 28 947.7
20260831231515 100 13.0 23.0 0.00 0.00 0.00 30 948.0
20260831230017 100 12.0 22.0 0.00 0.00 0.00 32 948.1
20260831224510 99 166 13.0 23.0 0.00 0.00 0.00 33 948.4
20260831223007 99 13.0 25.0 0.00 0.00 0.00 30 948.6
20260831221504 99 15.0 27.0 0.00 0.00 0.00 30 948.6
20260831220003 99 8.0 24.0 0.00 0.00 0.00 31 948.8
20260831214505 98 17.0 25.0 0.00 0.00 0.00 32 948.9
20260831213001 98 120 9.0 23.0 0.00 0.00 0.00 32 949.1
20260831211505 98 169 15.0 27.0 0.00 0.00 0.00 32 949.5
20260831210001 99 14.0 33.0 0.00 0.00 0.00 31 949.7
20260831204605 99 21.0 31.0 0.00 0.00 0.00 31 950.0
20260831203133 98 17.0 30.0 0.00 0.00 0.00 31 950.1
20260831201605 98 14.0 28.0 0.00 0.00 0.00 34 950.3
20260831200137 98 195 18.0 26.0 0.00 0.00 0.00 31 950.4
20260831194559 98 170 16.0 29.0 0.00 0.00 0.00 31 950.7
20260831193048 99 201 12.0 29.0 0.00 0.00 0.00 29 950.8
20260831191547 98 205 18.0 30.0 0.00 0.00 0.00 28 950.9
20260831190045 98 14.0 23.0 0.00 0.00 0.00 28 951.0
20260831184545 97 13.0 31.0 0.00 0.00 0.00 28 950.9
20260831183039 97 153 19.0 24.0 0.00 0.00 0.00 28 951.0
20260831181545 96 136 15.0 26.0 0.00 0.00 0.00 30 951.1
20260831180034 96 139 14.0 26.0 0.00 0.00 0.00 32 951.2
20260831174531 94 207 10.0 26.0 0.00 0.00 0.00 36 951.3
20260831173033 93 203 10.0 25.0 0.00 0.00 0.00 37 951.3
20260831171528 94 207 9.0 21.0 0.00 0.00 0.00 38 951.3
20260831170033 93 136 10.0 21.0 0.00 0.00 0.00 38 951.3
20260831164525 93 188 11.0 22.0 0.00 0.00 0.00 38 951.3
20260831163021 92 169 13.0 19.0 0.00 0.00 0.00 37 951.3
20260831161521 92 178 13.0 19.0 0.00 0.00 0.00 37 951.2
20260831160018 92 240 7.0 15.0 0.00 0.00 0.00 38 951.1
20260831154515 90 232 7.0 12.0 0.00 0.00 0.00 41 951.2
20260831153013 89 209 4.0 11.0 0.00 0.00 0.00 42 951.1
20260831151511 88 225 6.0 8.0 0.00 0.00 0.00 44 951.0
20260831150009 87 241 2.0 7.0 0.00 0.00 0.00 44 950.9
20260831144509 86 180 0.0 3.0 0.00 0.00 0.00 45 950.9
20260831143008 86 130 0.0 3.0 0.00 0.00 0.00 46 950.7
20260831141506 85 134 1.0 3.0 0.00 0.00 0.00 47 950.5
20260831140004 85 132 0.0 2.0 0.00 0.00 0.00 47 950.1
20260831134600 85 149 0.0 2.0 0.00 0.00 0.00 47 950.0
20260831133058 85 168 0.0 5.0 0.00 0.00 0.00 47 949.8
20260831131600 84 150 2.0 4.0 0.00 0.00 0.00 48 949.5
20260831130054 85 124 0.0 4.0 0.00 0.00 0.00 47 949.3
20260831124553 85 141 0.0 3.0 0.00 0.00 0.00 47 949.4
20260831123049 85 179 0.0 1.0 0.00 0.00 0.00 46 949.2
20260831121549 86 107 0.0 0.0 0.00 0.00 0.00 46 949.1
20260831114548 86 207 0.0 0.0 0.00 0.00 0.00 46 948.9
20260831113050 86 124 0.0 0.0 0.00 0.00 0.00 46 949.1
20260831111543 86 209 0.0 1.0 0.00 0.00 0.00 45 949.1
20260831110042 87 210 1.0 6.0 0.00 0.00 0.00 44 949.1
20260831104542 87 238 0.0 3.0 0.00 0.00 0.00 43 949.1
20260831103042 87 245 0.0 4.0 0.00 0.00 0.00 43 948.9
20260831101540 89 236 3.0 9.0 0.00 0.00 0.00 42 949.1
20260831100038 87 196 0.0 0.0 0.00 0.00 0.00 43 949.1
20260831094536 87 111 0.0 0.0 0.00 0.00 0.00 43 949.1
20260831093035 87 167 0.0 5.0 0.00 0.00 0.00 42 949.0
20260831091536 87 0.0 6.0 0.00 0.00 0.00 42 948.9
20260831090033 88 0.0 3.0 0.00 0.00 0.00 42 948.8
20260831084532 87 103 0.0 0.0 0.00 0.00 0.00 41 948.9
20260831083032 87 0.0 0.0 0.00 0.00 0.00 41 948.8
20260831081530 87 0.0 0.0 0.00 0.00 0.00 42 948.8
20260831080033 87 210 0.0 0.0 0.00 0.00 0.00 41 948.8
20260831074529 87 0.0 0.0 0.00 0.00 0.00 41 948.9
20260831073027 87 115 0.0 0.0 0.00 0.00 0.00 41 948.8
20260831071524 87 0.0 0.0 0.00 0.00 0.00 42 948.8
20260831070022 87 0.0 0.0 0.00 0.00 0.00 43 948.6
20260831064522 87 0.0 0.0 0.00 0.00 0.00 43 948.6
20260831063021 87 0.0 1.0 0.00 0.00 0.00 45 948.5
20260831061520 87 0.0 5.0 0.00 0.00 0.00 44 948.5
20260831060018 88 1.0 5.0 0.00 0.00 0.00 44 948.5
20260831054518 88 0.0 4.0 0.00 0.00 0.00 45 948.5
20260831053019 88 2.0 6.0 0.00 0.00 0.00 44 948.6
20260831051523 89 1.0 8.0 0.00 0.00 0.00 43 948.6